TimeCST,TemperatureF,Dew PointF,Humidity,Sea Level PressureIn,VisibilityMPH,Wind Direction,Wind SpeedMPH,Gust SpeedMPH,PrecipitationIn,Events,Conditions,WindDirDegrees,DateUTC
12:54 AM,27.0,24.1,89,30.23,8.0,Calm,Calm,-,N/A,,Clear,0,2012-11-05 06:54:00
1:54 AM,26.1,23.0,88,30.24,9.0,Calm,Calm,-,N/A,,Clear,0,2012-11-05 07:54:00
2:54 AM,26.1,23.0,88,30.24,8.0,Calm,Calm,-,N/A,,Clear,0,2012-11-05 08:54:00
3:54 AM,27.0,23.0,85,30.23,9.0,Calm,Calm,-,N/A,,Clear,0,2012-11-05 09:54:00
4:54 AM,26.1,21.9,84,30.23,8.0,Calm,Calm,-,N/A,,Clear,0,2012-11-05 10:54:00
5:54 AM,25.0,21.9,88,30.23,8.0,Calm,Calm,-,N/A,,Clear,0,2012-11-05 11:54:00
6:54 AM,24.1,21.9,91,30.23,7.0,Calm,Calm,-,N/A,,Scattered Clouds,0,2012-11-05 12:54:00
7:54 AM,30.9,28.0,89,30.24,7.0,NNE,4.6,-,N/A,,Scattered Clouds,30,2012-11-05 13:54:00
8:54 AM,37.0,30.9,79,30.23,10.0,ENE,4.6,-,N/A,,Scattered Clouds,60,2012-11-05 14:54:00
9:54 AM,41.0,30.0,65,30.24,10.0,East,6.9,-,N/A,,Mostly Cloudy,90,2012-11-05 15:54:00
10:54 AM,43.0,32.0,65,30.24,10.0,East,4.6,-,N/A,,Overcast,80,2012-11-05 16:54:00
11:54 AM,44.1,30.9,60,30.22,10.0,ENE,8.1,-,N/A,,Overcast,60,2012-11-05 17:54:00
12:54 PM,44.1,28.9,55,30.20,10.0,Variable,3.5,-,N/A,,Overcast,0,2012-11-05 18:54:00
1:54 PM,44.1,28.9,55,30.19,10.0,East,6.9,-,N/A,,Overcast,80,2012-11-05 19:54:00
2:54 PM,44.1,28.9,55,30.19,10.0,ENE,5.8,-,N/A,,Overcast,70,2012-11-05 20:54:00
3:54 PM,43.0,28.9,58,30.18,10.0,East,5.8,-,N/A,,Overcast,80,2012-11-05 21:54:00
4:54 PM,42.1,28.0,58,30.19,10.0,ENE,3.5,-,N/A,,Overcast,60,2012-11-05 22:54:00
5:54 PM,42.1,28.0,58,30.20,10.0,ENE,5.8,-,N/A,,Overcast,60,2012-11-05 23:54:00
6:54 PM,42.1,28.9,60,30.20,10.0,NE,3.5,-,N/A,,Overcast,50,2012-11-06 00:54:00
7:54 PM,39.9,30.0,68,30.17,10.0,East,6.9,-,N/A,,Overcast,100,2012-11-06 01:54:00
8:54 PM,39.0,32.0,76,30.17,10.0,ESE,4.6,-,N/A,,Overcast,120,2012-11-06 02:54:00
9:54 PM,39.0,30.9,73,30.17,10.0,Calm,Calm,-,N/A,,Overcast,0,2012-11-06 03:54:00
10:54 PM,37.9,30.0,73,30.15,10.0,Calm,Calm,-,N/A,,Overcast,0,2012-11-06 04:54:00
11:54 PM,37.0,30.0,76,30.13,10.0,SSE,5.8,-,N/A,,Overcast,160,2012-11-06 05:54:00